Location: Acheville
(50.3840°N, 2.8827°E)
Time: 15:48:45
(UTC+00:00)

CSL-04 Rocket - Pass Details

Date: 24 October 2021
Orbit: 806 x 860 km, 98.9° (Epoch: 27 November)

Event Time Altitude Azimuth Distance (km) Brightness Sun altitude
Exits shadow 18:56:00 32° 151° (SSE) 1,446 4.6 -22.5°
Maximum altitude 18:58:42 76° 72° (ENE) 890 3.6 -22.9°
Drops below altitude 10° 19:04:17 10° 347° (NNW) 2,510 6.4 -23.8°
Sets 19:06:40 0° 346° (NNW) 3,448 7.2 -24.2°
